Overview Statistics Trail Chart Weather Telemetry Raw packets
 

This is the latest recevied weather packets stored in our database for station/object K6CED. If no packets are shown the sender has not sent any weather packets the latest 10 day(s).

<< 1 2 3 4 5 6 7 >>
Time Temp. Humidity Pressure Rain* Wind** Luminosity Snow
1788655875 32.22° C 38% 1015 hPa 0 mm - 99 W/m² -
1788655574 32.22° C 37% 1015 hPa 0 mm - 112 W/m² -
1788655269 31.67° C 37% 1015.1 hPa 0 mm - 117 W/m² -
1788654964 32.22° C 37% 1015.2 hPa 0 mm - 136 W/m² -
1788654660 32.78° C 35% 1014.9 hPa 0 mm - 163 W/m² -
1788654354 32.78° C 37% 1015 hPa 0 mm - 181 W/m² -
1788654049 32.78° C 36% 1014.9 hPa 0 mm - 196 W/m² -
1788653745 32.78° C 35% 1015 hPa 0 mm - 212 W/m² -
1788653439 33.33° C 34% 1014.9 hPa 0 mm - 251 W/m² -
1788653135 33.33° C 34% 1015 hPa 0 mm - 328 W/m² -
1788652830 33.33° C 35% 1015.1 hPa 0 mm - 183 W/m² -
1788652523 33.33° C 34% 1014.8 hPa 0 mm - 302 W/m² -
1788652219 33.33° C 35% 1015 hPa 0 mm - 229 W/m² -
1788651915 32.78° C 35% 1014.8 hPa 0 mm - 279 W/m² -
1788651609 32.78° C 35% 1014.9 hPa 0 mm - 255 W/m² -
1788651304 32.22° C 35% 1015 hPa 0 mm - 177 W/m² -
1788651040 32.22° C 35% 1014.9 hPa 0 mm - 172 W/m² -
1788650699 32.78° C 34% 1015 hPa 0 mm - 257 W/m² -
1788650395 32.78° C 34% 1014.9 hPa 0 mm - 194 W/m² -
1788650090 32.78° C 35% 1014.8 hPa 0 mm - 395 W/m² -
1788649787 32.22° C 34% 1015 hPa 0 mm - 144 W/m² -
1788649485 32.22° C 34% 1015 hPa 0 mm - 253 W/m² -
1788649183 32.78° C 34% 1014.9 hPa 0 mm - 163 W/m² -
1788648878 32.22° C 34% 1015.1 hPa 0 mm - 239 W/m² -
1788648573 32.78° C 34% 1015.1 hPa 0 mm - 214 W/m² -

* Rain latest hour (hover to see other rain measurements)
** Current wind speed in m/s (hover to see current wind gust speed)